Lexington, NC

9:06 PM EDT on March 24, 2017 (GMT -0400)
Davidson County

Weather History for KEXX - May, 2014

Change the Weather History Date:

Sunday, May 25, 2014

  Actual Average (KINT) Record (KINT)
Temperature  
Mean Temperature 65 °F -  
Max Temperature 78 °F 76 °F 91 °F (1975)
Min Temperature 52 °F 57 °F 41 °F (2013)
Growing Degree Days 15 (Base 50)    
Moisture  
Dew Point 55 °F    
Average Humidity 73    
Maximum Humidity 100    
Minimum Humidity 43    
Precipitation  
Precipitation 0.00 in - - ()
Sea Level Pressure  
Sea Level Pressure 30.16 in    
Wind  
Wind Speed 1 mph (South)    
Max Wind Speed 6 mph    
Max Gust Speed -    
Visibility 10 miles    
Events      
Averages and records for this station are not official NWS values.
T = Trace of Precipitation, MM = Missing Value Source: NWS Daily Summary

Daily Weather History Graph

Daily Weather History Graph

Search for Another Location

Airport or City:

Trip Planner

Search our weather history database for the weather conditions in past years. The results will help you decide how hot, cold, wet, or windy it might be!

Date:

Astronomy

May. 25, 2014 Rise Set
Actual Time 6:09 AM EDT 8:27 PM EDT
Civil Twilight 5:40 AM EDT 8:56 PM EDT
Nautical Twilight 5:04 AM EDT 9:32 PM EDT
Astronomical Twilight 4:25 AM EDT 10:11 PM EDT
Moon 4:06 AM EDT 5:31 PM EDT
Length of Visible Light 15h 16m
Length of Day
14h 17m
Waning Crescent, 10% of the Moon is Illuminated
May 25
Waning Crescent
May 28
New
Jun 5
First Quarter
Jun 13
Full
Jun 19
Last Quarter

Hourly Weather History & Observations

Time (EDT) Temp. Dew Point Humidity Pressure Visibility Wind Dir Wind Speed Gust Speed Precip Events Conditions
12:15 AM 60.3 °F 50.9 °F 71% 30.13 in 10.0 mi Calm Calm - N/A   Scattered Clouds
12:35 AM 59.0 °F 51.6 °F 76% 30.13 in 10.0 mi Calm Calm - N/A   Clear
1:15 AM 55.8 °F 51.4 °F 85% 30.13 in 10.0 mi Calm Calm - N/A   Clear
1:35 AM 57.0 °F 51.4 °F 82% 30.13 in 10.0 mi Calm Calm - N/A   Clear
1:55 AM 57.4 °F 51.4 °F 81% 30.13 in 10.0 mi Calm Calm - N/A   Clear
2:15 AM 55.2 °F 51.8 °F 88% 30.12 in 10.0 mi Calm Calm - N/A   Scattered Clouds
2:35 AM 55.0 °F 51.3 °F 87% 30.12 in 10.0 mi Calm Calm - N/A   Scattered Clouds
2:55 AM 54.1 °F 52.2 °F 93% 30.12 in 10.0 mi Calm Calm - N/A   Clear
3:15 AM 53.2 °F 53.2 °F 100% 30.12 in 10.0 mi Calm Calm - N/A   Clear
3:35 AM 52.9 °F 52.9 °F 100% 30.12 in 10.0 mi Calm Calm - N/A   Clear
3:55 AM 54.5 °F 52.7 °F 94% 30.13 in 10.0 mi Calm Calm - N/A   Clear
4:15 AM 53.6 °F 53.6 °F 100% 30.13 in 10.0 mi Calm Calm - N/A   Clear
4:35 AM 53.2 °F 53.2 °F 100% 30.13 in 10.0 mi Calm Calm - N/A   Scattered Clouds
4:55 AM 53.6 °F 53.6 °F 100% 30.14 in 10.0 mi Calm Calm - N/A   Mostly Cloudy
5:15 AM 52.9 °F 52.9 °F 100% 30.14 in 10.0 mi Calm Calm - N/A   Mostly Cloudy
5:35 AM 52.7 °F 52.7 °F 100% 30.15 in 10.0 mi Calm Calm - N/A   Mostly Cloudy
5:55 AM 52.7 °F 52.7 °F 100% 30.15 in 10.0 mi Calm Calm - N/A   Mostly Cloudy
6:15 AM 52.0 °F 52.0 °F 100% 30.16 in 10.0 mi Calm Calm - N/A   Mostly Cloudy
6:35 AM 53.1 °F 53.1 °F 100% 30.16 in 10.0 mi Calm Calm - N/A   Mostly Cloudy
6:55 AM 53.8 °F 53.8 °F 100% 30.17 in 10.0 mi Calm Calm - N/A   Mostly Cloudy
7:15 AM 54.5 °F 54.5 °F 100% 30.18 in 10.0 mi Calm Calm - N/A   Mostly Cloudy
7:35 AM 55.9 °F 55.9 °F 100% 30.18 in 10.0 mi Calm Calm - N/A   Mostly Cloudy
7:55 AM 57.7 °F 56.5 °F 96% 30.19 in 10.0 mi Calm Calm - N/A   Scattered Clouds
8:15 AM 60.4 °F 56.1 °F 86% 30.19 in 10.0 mi Calm Calm - N/A   Scattered Clouds
8:35 AM 63.1 °F 55.6 °F 76% 30.19 in 10.0 mi Calm Calm - N/A   Scattered Clouds
8:55 AM 64.6 °F 54.1 °F 69% 30.20 in 10.0 mi Calm Calm - N/A   Mostly Cloudy
9:15 AM 65.7 °F 54.7 °F 68% 30.20 in 10.0 mi Calm Calm - N/A   Mostly Cloudy
9:35 AM 66.7 °F 55.9 °F 68% 30.21 in 10.0 mi Calm Calm - N/A   Mostly Cloudy
10:15 AM 68.7 °F 55.8 °F 63% 30.21 in 10.0 mi Calm Calm - N/A   Scattered Clouds
10:55 AM 71.1 °F 55.6 °F 58% 30.21 in 10.0 mi Calm Calm - N/A   Scattered Clouds
11:15 AM 72.5 °F 56.7 °F 57% 30.21 in 10.0 mi SSW 5.8 mph - N/A   Scattered Clouds
11:35 AM 72.9 °F 57.0 °F 57% 30.21 in 10.0 mi SSW 3.5 mph - N/A   Scattered Clouds
11:55 AM 74.1 °F 57.9 °F 57% 30.20 in 10.0 mi SSE 3.5 mph - N/A   Scattered Clouds
12:15 PM 74.7 °F 57.0 °F 54% 30.20 in 10.0 mi SW 4.6 mph - N/A   Clear
12:55 PM 75.6 °F 55.2 °F 49% 30.19 in 10.0 mi SSE 5.8 mph - N/A   Scattered Clouds
1:15 PM 75.2 °F 53.4 °F 47% 30.18 in 10.0 mi South 4.6 mph - N/A   Clear
1:35 PM 76.8 °F 54.7 °F 46% 30.18 in 10.0 mi Calm Calm - N/A   Clear
1:55 PM 77.2 °F 53.2 °F 43% 30.18 in 10.0 mi South 3.5 mph - N/A   Clear
2:15 PM 77.9 °F 54.7 °F 45% 30.17 in 10.0 mi South 5.8 mph - N/A   Scattered Clouds
2:55 PM 78.4 °F 55.2 °F 45% 30.17 in 10.0 mi SE 3.5 mph - N/A   Scattered Clouds
3:15 PM 78.3 °F 56.3 °F 47% 30.16 in 10.0 mi Calm Calm - N/A   Scattered Clouds
3:35 PM 77.4 °F 56.5 °F 48% 30.16 in 10.0 mi SW 3.5 mph - N/A   Unknown
3:55 PM 76.8 °F 55.2 °F 47% 30.16 in 10.0 mi South 4.6 mph - N/A   Unknown
4:15 PM 77.0 °F 56.8 °F 50% 30.14 in 10.0 mi South 5.8 mph - N/A   Unknown
4:35 PM 77.7 °F 55.9 °F 47% 30.14 in 10.0 mi South 4.6 mph - N/A   Unknown
4:55 PM 77.5 °F 56.5 °F 48% 30.14 in 10.0 mi SSW 3.5 mph - N/A   Clear
5:15 PM 76.6 °F 57.2 °F 51% 30.13 in 10.0 mi Calm Calm - N/A   Clear
5:35 PM 78.4 °F 57.4 °F 48% 30.14 in 10.0 mi South 4.6 mph - N/A   Scattered Clouds
5:55 PM 76.5 °F 57.4 °F 52% 30.14 in 10.0 mi South 3.5 mph - N/A   Scattered Clouds
6:15 PM 77.0 °F 57.9 °F 52% 30.13 in 10.0 mi Calm Calm - N/A   Scattered Clouds
6:35 PM 77.2 °F 56.8 °F 49% 30.13 in 10.0 mi SSE 3.5 mph - N/A   Mostly Cloudy
6:55 PM 75.2 °F 56.8 °F 53% 30.13 in 10.0 mi SSW 3.5 mph - N/A   Scattered Clouds
7:15 PM 75.9 °F 57.4 °F 52% 30.13 in 10.0 mi SSE 3.5 mph - N/A   Clear
7:35 PM 74.7 °F 57.4 °F 55% 30.13 in 10.0 mi Calm Calm - N/A   Clear
7:55 PM 71.2 °F 58.8 °F 65% 30.14 in 10.0 mi Calm Calm - N/A   Clear
8:15 PM 69.3 °F 58.6 °F 69% 30.15 in 10.0 mi Calm Calm - N/A   Clear
8:35 PM 68.2 °F 58.6 °F 71% 30.15 in 10.0 mi Calm Calm - N/A   Clear
8:55 PM 66.9 °F 58.1 °F 73% 30.16 in 10.0 mi Calm Calm - N/A   Clear
9:15 PM 66.2 °F 58.5 °F 76% 30.16 in 10.0 mi Calm Calm - N/A   Clear
9:35 PM 65.8 °F 58.3 °F 77% 30.16 in 10.0 mi Calm Calm - N/A   Scattered Clouds
9:55 PM 65.1 °F 58.5 °F 79% 30.17 in 10.0 mi Calm Calm - N/A   Clear
10:15 PM 64.8 °F 58.3 °F 79% 30.18 in 10.0 mi Calm Calm - N/A   Scattered Clouds
10:35 PM 63.5 °F 58.3 °F 83% 30.18 in 10.0 mi Calm Calm - N/A   Scattered Clouds
10:55 PM 64.0 °F 58.5 °F 82% 30.18 in 10.0 mi Calm Calm - N/A   Scattered Clouds
11:15 PM 63.7 °F 58.6 °F 84% 30.18 in 10.0 mi Calm Calm - N/A   Clear
11:35 PM 62.4 °F 58.6 °F 87% 30.17 in 10.0 mi Calm Calm - N/A   Clear
11:55 PM 61.3 °F 59.2 °F 93% 30.17 in 10.0 mi Calm Calm - N/A   Clear